INTELSAT 34 (IS-34)

Last updated on Thu Nov 21 2024 00:02:43 GMT+0000 (Coordinated Universal Time)

1 40874U 15039A 24324.78391316 -.00000284 00000+0 00000+0 0 9997 2 40874 0.0161 300.6743 0000360 235.0822 110.2764 1.00271040 33863
UTC large
Height (km)
Speed (km/s)
/
Latitude / Longitude
Inclination (degrees)
Orbital Period (minutes)
Azimuth
Elevation
Range (km)
Doppler Factor

Next 0 passes for location: London (51.5072 / 0.1276)

Sorry there are no passes over London.